COSMOS 2251 DEB, 40233

Orbit data source: Space-Track

COSMOS 2251 DEB, 40233 is space debris in LEO originally from a launch on Wed, 16 Jun 1993 UTC launched from the Plesetsk Missile And Space Complex (PKMTR). The debris from Iridium 33, an American commercial communications satellite, has been tracked extensively since its accidental collision with the defunct Russian satellite Cosmos 2251 in 2009. This event, occurring at high speed in low Earth orbit (LEO), generated thousands of pieces of space debris, significantly increasing the risk of further collisions. The Iridium 33 debris cloud has impacted space traffic management and orbital debris mitigation strategies, making it a subject of ongoing study in space situational awareness.

Loading next visibility...
Identifier
40233, 1993-036BVN
Orbit
LEO
Country
Flag of CISCIS
Related business
Manufacturer
Unknown
Mission
Spacecraft
Bus & Motor
Unknown
Mass
Unknown
Launch date (UTC)
1993-06-16 (33 years ago)
Launch vehicle
Unknown
Launch site
Plesetsk Missile And Space Complex (PKMTR)
Object type
Payload
Rocket body
Debris
Shape & HBR
Unknown shape, 0.1 m
Radar Cross Section
Small (<0.1 m²)

Expand to show TLE details & history
Last TLE update: 3 days ago

TLE from 3 days ago
0 COSMOS 2251 DEB
1 40233U 93036BVN 26167.09287127  .00003195  00000-0  65986-3 0  9996
2 40233  73.9390 107.6394 0045024 141.6293 218.8090 14.60181310618419
Epoch: 2026-06-16T02:13Z
TLE epoch observation values (Epoch: 2026-06-16T02:13:44.077Z)
Latitude
-0.00003°
Longitude
169.83588°
Altitude
720.091 km
Speed
7.482 km/s
True Right ascension
07h 10m 33s
True Declination
0° 00' 00"
Sunlit
Object was in daylight at epoch
Visualization orbit readout
Latitude
Unknown
Longitude
Unknown
Altitude
Unknown
Speed
Unknown
Apparent Right ascension
Unknown
Apparent Declination
Unknown
Sunlit
N/A
Visualization observer readout
Local Sidereal Time
17:48:18
Azimuth
Unknown
Elevation
Unknown
Doppler factor
Unknown
Orbital elements
Apogee altitude
722.019 km
Perigee altitude
658.37 km
Semi-major axis
7,068.331 km
Eccentricity
0.0045
Inclination
73.939°
RAAN
107.6394°
Arg. of periapsis
141.6293°
True anomaly
218.48706°
Mean anomaly
218.809°
Eccentric anomaly
218.64789°
Mean motion
3.65231 °/min
Orbital period
98.57 mins
BSTAR
0.00065986

Documentation

Showing up to 5 results
|